Kingman, AZ

9:03 PM MST on April 23, 2018 (GMT -0700)
Kingman

Weather History for KIGM - June, 2014

Change the Weather History Date:

Tuesday, June 10, 2014

  Actual Average Record
Temperature  
Mean Temperature 85 °F 76 °F  
Max Temperature 100 °F 92 °F 107 °F (1910)
Min Temperature 69 °F 61 °F 45 °F (1941)
Degree Days  
Heating Degree Days 0 0  
Month to date heating degree days 0 0  
Since 1 June heating degree days 0 0  
Since 1 July heating degree days 2834 3100  
Cooling Degree Days 20 11  
Month to date cooling degree days 143 101  
Year to date cooling degree days 368 299  
Since 1 June cooling degree days 143 101  
Growing Degree Days 36 (Base 50)    
Moisture  
Dew Point 28 °F    
Average Humidity 15    
Maximum Humidity 21    
Minimum Humidity 8    
Precipitation  
Precipitation 0.00 in 0.00 in 1.01 in (2015)
Month to date precipitation 0.00 0.01  
Year to date precipitation 0.79 3.47  
Sea Level Pressure  
Sea Level Pressure 29.67 in    
Wind  
Wind Speed 16 mph (SSW)    
Max Wind Speed 33 mph    
Max Gust Speed 42 mph    
Visibility 10 miles    
Events      
T = Trace of Precipitation, MM = Missing Value Source: NWS Daily Summary

Daily Weather History Graph

Daily Weather History Graph

Search for Another Location

Airport or City:

Astronomy

Jun. 10, 2014 Rise Set
Actual Time 5:20 AM MST 7:50 PM MST
Civil Twilight 4:50 AM MST 8:19 PM MST
Nautical Twilight 4:14 AM MST 8:56 PM MST
Astronomical Twilight 3:33 AM MST 9:37 PM MST
Moon 5:24 PM MST (6/10) 3:23 AM MST (6/10)
Length of Visible Light 15h 28m
Length of Day
14h 29m
Waxing Gibbous, 93% of the Moon is Illuminated
Jun 10
Waxing Gibbous
Jun 12
Full
Jun 19
Last Quarter
Jun 27
New
Jul 5
First Quarter

Hourly Weather History & Observations

Time (MST) Temp. Dew Point Humidity Pressure Visibility Wind Dir Wind Speed Gust Speed Precip Events Conditions
12:51 AM 80.1 °F 23.0 °F 12% 29.63 in 10.0 mi SSW 10.4 mph - N/A   Clear
1:51 AM 73.9 °F 26.1 °F 17% 29.63 in 10.0 mi SSE 8.1 mph - N/A   Clear
2:51 AM 71.1 °F 26.1 °F 19% 29.63 in 10.0 mi SSW 5.8 mph - N/A   Clear
3:51 AM 77.0 °F 30.0 °F 18% 29.62 in 10.0 mi South 12.7 mph - N/A   Clear
4:51 AM 75.9 °F 32.0 °F 20% 29.63 in 10.0 mi South 12.7 mph - N/A   Clear
5:21 AM 75.0 °F 25.0 °F 16% 29.88 in 10.0 mi ESE 13.8 mph - N/A   Clear
5:51 AM 73.4 °F 26.6 °F 18% 29.89 in 10.0 mi SE 8.1 mph - N/A   Clear
6:51 AM 80.1 °F 28.0 °F 15% 29.65 in 10.0 mi ESE 6.9 mph - N/A   Clear
7:51 AM 87.1 °F 28.0 °F 12% 29.66 in 10.0 mi ESE 10.4 mph - N/A   Clear
8:51 AM 90.0 °F 28.9 °F 11% 29.67 in 10.0 mi East 9.2 mph - N/A   Clear
9:51 AM 91.4 °F 26.6 °F 10% 29.90 in 10.0 mi Variable 3.5 mph - N/A   Clear
10:51 AM 93.2 °F 30.2 °F 11% 29.90 in 10.0 mi SW 10.4 mph - N/A   Clear
11:51 AM 96.8 °F 33.8 °F 11% 29.89 in 10.0 mi SW 20.7 mph 24.2 mph N/A   Clear
12:51 PM 99.0 °F 33.1 °F 10% 29.62 in 9.0 mi SSW 28.8 mph 40.3 mph N/A   Clear
1:51 PM 98.1 °F 34.0 °F 11% 29.62 in 10.0 mi SW 27.6 mph 42.6 mph N/A   Clear
2:51 PM 99.0 °F 34.0 °F 10% 29.61 in 10.0 mi SW 25.3 mph 38.0 mph N/A   Clear
3:51 PM 98.1 °F 35.1 °F 11% 29.57 in 10.0 mi SW 23.0 mph 35.7 mph N/A   Clear
4:51 PM 96.1 °F 30.0 °F 10% 29.57 in 10.0 mi SW 24.2 mph 31.1 mph N/A   Clear
5:51 PM 95.0 °F 30.9 °F 10% 29.56 in 10.0 mi SW 21.9 mph - N/A   Clear
6:51 PM 91.9 °F 21.9 °F 8% 29.57 in 10.0 mi SSW 21.9 mph 32.2 mph N/A   Clear
7:51 PM 87.8 °F 26.6 °F 11% 29.82 in 10.0 mi SSW 19.6 mph - N/A   Clear
8:51 PM 84.0 °F 19.0 °F 9% 29.60 in 10.0 mi SSW 19.6 mph - N/A   Clear
9:51 PM 81.0 °F 19.9 °F 10% 29.61 in 10.0 mi SSW 18.4 mph - N/A   Clear
10:51 PM 79.0 °F 26.1 °F 14% 29.62 in 10.0 mi SSW 13.8 mph - N/A   Clear
11:51 PM 75.0 °F 30.0 °F 19% 29.62 in 10.0 mi South 10.4 mph - N/A   Clear